Погода в Искровке

Украина / Кировоградская область     48°11′31″N   33°22′58″E
темп.,
°C
ветер,
м/с
пор.,
м/с
влажн.,
%
обл.,
%
осадки,
мм/ч
давл.,
гПа
погр.,
м
1 августа, вс
вс100:00+24в335020 0.0 101135
03:00+24ю125016 0.0 101215
06:00+22юз22590 0.0 101212
09:00+28ююз234331 0.0 1012437
12:00+32ююз333199 0.0 10112664
15:00+34юз332636 0.0 10103262
18:00+33ю342982 0.0 10102128
21:00+28ю493874 0.0 1010244
2 августа, пн
пн200:00+24ю48481 0.0 1011141
03:00+22юз22580 0.0 101127
06:00+22ююз33624 0.0 101134
09:00+29ююз46430 0.0 1011503
12:00+33ю67291 0.0 10101600
15:00+35ююз56265 0.0 10082477
18:00+34юз673025 0.0 10072591
21:00+22всв3575100 0.2 1010152
3 августа, вт
вт300:00+20в34843 0.8 101072
03:00+20ююз228759 0.8 101033
06:00+19ссз4892100 0.3 1011222
09:00+22с677660 0.3 1012697
12:00+27ссз55495 0.0 10131346
15:00+28ссз653880 0.0 10131846
18:00+26ссз66400 0.0 10141827
21:00+21ссз34542 0.0 101552
4 августа, ср
ср400:00+20ссз3357100 0.0 101646
03:00+18ссз33640 0.0 101729
06:00+17с11700 0.0 101811
09:00+24ссз115041 0.0 1018497
12:00+28зсз223320 0.0 10182228
15:00+30сз33270 0.0 10172744
18:00+29с22278 0.0 10162711
21:00+22св48463 0.0 1017129
5 августа, чт
чт500:00+20всв3348100 0.0 101848
03:00+20вюв3449100 0.0 101774
06:00+19ююв33545 0.0 101735
09:00+27ю45395 0.0 1017573
12:00+31ю442815 0.0 10162431
15:00+32ююв532692 0.0 10152821
18:00+31ююв432811 0.0 10142022
21:00+25юв453571 0.0 101362